Tracking 29892 objects as of 21-Nov-2024
HD Live streaming from Space Station
objects crossing your sky now

STECCO

Track STECCO now!
10-day predictions
STECCO is classified as:


NORAD ID: 47943
Int'l Code: 2021-022M
Perigee: 307.5 km
Apogee: 316.9 km
Inclination: 97.4 °
Period: 90.6 minutes
Semi major axis: 6683 km
RCS: Unknown
Launch date: March 22, 2021
Source: (TBD)
Launch site: TYURATAM MISSILE AND SPACE COMPLEX (TTMTR)
Your satellite tracking list
Your tracking list is empty




NASA's NSSDC Master Catalog

Two Line Element Set (TLE):
1 47943U 21022M   24326.12878857  .00618007  14859-3  21859-2 0  9996
2 47943  97.4330 236.0225 0007011 129.1105 231.0791 15.89006326203180
Source of the keplerian elements: AFSPC